Weather History for Hot Springs, AR

Change the Weather History Date:

Thursday, June 13, 2013

  Actual Average Record
Temperature  
Mean Temperature 29 °C -  
Max Temperature 36 °C 31 °C 39 °C (1953)
Min Temperature 23 °C 18 °C 11 °C (1985)
Cooling Degree Days 20    
Growing Degree Days 34 (Base 50)    
Moisture  
Dew Point 22 °C    
Average Humidity 65    
Maximum Humidity 91    
Minimum Humidity 44    
Precipitation  
Precipitation 0.00 mm - - ()
Sea Level Pressure  
Sea Level Pressure 1014 hPa    
Wind  
Wind Speed 5 km/h (NW)    
Max Wind Speed 21 km/h    
Max Gust Speed 27 km/h    
Visibility 16 kilometers    
Events      
Averages and records for this station are not official NWS values.
T = Trace of Precipitation, MM = Missing Value Source: NWS Daily Summary

Daily Weather History Graph

Daily Weather History Graph

Search for Another Location

Airport:

Trip Planner

Search our weather history database for the weather conditions in past years. The results will help you decide how hot, cold, wet, or windy it might be!

Date:

Astronomy

Jun. 13, 2013 Rise Set
Actual Time 5:59 AM CDT 8:25 PM CDT
Civil Twilight 5:29 AM CDT 8:55 PM CDT
Nautical Twilight 4:53 AM CDT 9:31 PM CDT
Astronomical Twilight 4:13 AM CDT 10:11 PM CDT
Moon 10:27 AM CDT (6/13) 11:43 PM CDT (6/13)
Length of Visible Light 15h 25m
Length of Day
14h 26m
Waxing Crescent, 22% of the Moon is Illuminated
Jun 13
Waxing Crescent
Jun 16
First Quarter
Jun 23
Full
Jun 29
Last Quarter
Jul 8
New

Hourly Weather History & Observations

Time (CDT) Temp. Heat Index Dew Point Humidity Pressure Visibility Wind Dir Wind Speed Gust Speed Precip Events Conditions
12:53 AM 24.4 °C - 21.7 °C 85% 1014.6 hPa 16.1 km Calm Calm - N/A   Clear
1:53 AM 24.4 °C - 22.2 °C 87% 1014.5 hPa 16.1 km Calm Calm - N/A   Clear
2:53 AM 24.4 °C - 22.2 °C 87% 1014.4 hPa 16.1 km NW 5.6 km/h / 1.5 m/s - N/A   Clear
3:53 AM 23.9 °C - 21.7 °C 87% 1014.5 hPa 16.1 km Calm Calm - N/A   Clear
4:53 AM 23.9 °C - 21.7 °C 87% 1014.5 hPa 16.1 km Calm Calm - N/A   Clear
5:53 AM 23.3 °C - 21.7 °C 91% 1014.8 hPa 14.5 km Calm Calm - N/A   Clear
6:53 AM 23.9 °C - 21.7 °C 87% 1015.2 hPa 14.5 km NW 5.6 km/h / 1.5 m/s - N/A   Clear
7:53 AM 26.1 °C - 22.2 °C 79% 1015.5 hPa 16.1 km Variable 5.6 km/h / 1.5 m/s - N/A   Clear
8:53 AM 28.3 °C 31.6 °C 22.8 °C 72% 1015.6 hPa 16.1 km Calm Calm - N/A   Clear
9:53 AM 30.6 °C 35.2 °C 23.3 °C 65% 1015.4 hPa 16.1 km West 13.0 km/h / 3.6 m/s - N/A   Clear
10:53 AM 32.2 °C 36.1 °C 22.2 °C 55% 1015.3 hPa 16.1 km WNW 11.1 km/h / 3.1 m/s - N/A   Clear
11:53 AM 33.3 °C 37.5 °C 22.2 °C 52% 1015.2 hPa 16.1 km West 14.8 km/h / 4.1 m/s - N/A   Clear
12:53 PM 33.9 °C 38.2 °C 22.2 °C 50% 1014.7 hPa 16.1 km West 14.8 km/h / 4.1 m/s - N/A   Clear
1:53 PM 35.0 °C 40.3 °C 22.8 °C 49% 1014.2 hPa 16.1 km West 9.3 km/h / 2.6 m/s - N/A   Clear
2:53 PM 35.0 °C 39.5 °C 22.2 °C 47% 1013.6 hPa 16.1 km WNW 13.0 km/h / 3.6 m/s - N/A   Clear
3:53 PM 35.6 °C 39.7 °C 21.7 °C 44% 1013.0 hPa 16.1 km NW 13.0 km/h / 3.6 m/s - N/A   Clear
4:53 PM 35.0 °C 39.5 °C 22.2 °C 47% 1012.3 hPa 16.1 km WNW 11.1 km/h / 3.1 m/s - N/A   Clear
5:53 PM 35.0 °C 40.3 °C 22.8 °C 49% 1011.7 hPa 16.1 km West 5.6 km/h / 1.5 m/s - N/A   Clear
6:53 PM 34.4 °C 39.6 °C 22.8 °C 51% 1011.6 hPa 16.1 km Variable 5.6 km/h / 1.5 m/s - N/A   Clear
7:53 PM 33.3 °C 38.5 °C 23.3 °C 55% 1012.0 hPa 16.1 km Calm Calm - N/A   Mostly Cloudy
8:53 PM 31.1 °C 36.4 °C 23.9 °C 65% 1012.2 hPa 16.1 km NNE 5.6 km/h / 1.5 m/s - N/A   Clear
9:53 PM 30.6 °C 32.9 °C 20.6 °C 55% 1012.9 hPa 16.1 km ENE 20.4 km/h / 5.7 m/s 27.8 km/h / 7.7 m/s N/A   Partly Cloudy
10:53 PM 28.9 °C 30.2 °C 18.9 °C 55% 1013.6 hPa 16.1 km East 9.3 km/h / 2.6 m/s - N/A   Clear
11:53 PM 27.8 °C 29.2 °C 19.4 °C 60% 1013.8 hPa 16.1 km East 9.3 km/h / 2.6 m/s - N/A   Partly Cloudy